| time (UTC) | temp F | wind direction | speed MPH | gust MPH | rain 1hr in | rain 24hr in | rain mn in | humidity % | barometer mb |
| 20260509060105 | 60 | 0 | 0.0 | 0.0 | 0.00 | 0.02 | 0.00 | 92 | 1014.9 |
| 20260509054605 | 59 | 0 | 0.0 | 0.0 | 0.00 | 0.02 | 0.00 | 92 | 1014.7 |
| 20260509053105 | 59 | 355 | 0.0 | 0.0 | 0.00 | 0.02 | 0.00 | 92 | 1014.7 |
| 20260509051605 | 59 | 0 | 0.0 | 0.0 | 0.00 | 0.02 | 0.00 | 92 | 1014.7 |
| 20260509050605 | 59 | 339 | 0.0 | 0.0 | 0.00 | 0.02 | 0.00 | 92 | 1014.5 |
| 20260509050105 | 59 | 0 | 0.0 | 0.0 | 0.00 | 0.02 | 0.00 | 92 | 1014.5 |
| 20260509044104 | 59 | 0 | 0.0 | 0.0 | 0.00 | 0.02 | 0.00 | 92 | 1014.3 |
| 20260509043604 | 58 | 0 | 0.0 | 0.0 | 0.00 | 0.02 | 0.00 | 92 | 1014.3 |
| 20260509041604 | 58 | 0 | 0.0 | 0.0 | 0.00 | 0.02 | 0.00 | 92 | 1014.3 |
| 20260509040605 | 58 | 0 | 0.0 | 0.0 | 0.00 | 0.02 | 0.00 | 92 | 1014.4 |
| 20260509034605 | 59 | 0 | 0.0 | 0.0 | 0.00 | 0.02 | 0.00 | 91 | 1014.4 |
| 20260509034105 | 59 | 0 | 0.0 | 0.0 | 0.00 | 0.02 | 0.00 | 92 | 1014.4 |
| 20260509031605 | 59 | 0 | 0.0 | 0.0 | 0.00 | 0.02 | 0.00 | 92 | 1014.4 |
| 20260509024105 | 59 | 0 | 0.0 | 0.0 | 0.00 | 0.02 | 0.00 | 91 | 1014.4 |
| 20260509023604 | 59 | 324 | 0.0 | 0.0 | 0.00 | 0.02 | 0.00 | 91 | 1014.4 |
| 20260509020604 | 59 | 0 | 0.0 | 0.0 | 0.00 | 0.02 | 0.00 | 91 | 1014.4 |
| 20260509014605 | 60 | 0 | 0.0 | 0.0 | 0.00 | 0.02 | 0.00 | 91 | 1014.4 |
| 20260509014105 | 60 | 0 | 0.0 | 0.0 | 0.00 | 0.02 | 0.00 | 91 | 1014.4 |
| 20260509013604 | 60 | 0 | 0.0 | 0.0 | 0.00 | 0.02 | 0.00 | 91 | 1014.5 |
| 20260509011604 | 60 | 0 | 0.0 | 0.0 | 0.00 | 0.02 | 0.00 | 91 | 1014.6 |
| 20260509011104 | 60 | 0 | 0.0 | 0.0 | 0.00 | 0.02 | 0.00 | 91 | 1014.6 |
| 20260509010104 | 60 | 0 | 0.0 | 1.0 | 0.00 | 0.02 | 0.00 | 91 | 1015.1 |
| 20260509003104 | 60 | 282 | 0.0 | 0.0 | 0.00 | 0.02 | 0.00 | 91 | 1015.1 |
| 20260509001104 | 60 | 0 | 0.0 | 0.0 | 0.00 | 0.02 | 0.00 | 91 | 1015.1 |
| 20260509000605 | 60 | 284 | 0.0 | 0.0 | 0.00 | 0.02 | 0.00 | 91 | 1015.1 |
| 20260509000105 | 60 | 283 | 0.0 | 0.0 | 0.00 | 0.02 | 0.00 | 91 | 1015.1 |
| 20260508231105 | 59 | 282 | 0.0 | 1.0 | 0.00 | 0.02 | 0.00 | 91 | 1015.6 |
| 20260508224105 | 59 | 282 | 0.0 | 1.0 | 0.00 | 0.02 | 0.00 | 91 | 1015.6 |
| 20260508223104 | 60 | 282 | 0.0 | 1.0 | 0.00 | 0.02 | 0.00 | 91 | 1015.6 |
| 20260508221104 | 60 | 285 | 0.0 | 0.0 | 0.00 | 0.02 | 0.00 | 91 | 1015.8 |
| 20260508220605 | 60 | 283 | 0.0 | 1.0 | 0.00 | 0.02 | 0.00 | 91 | 1015.8 |
| 20260508220105 | 60 | 282 | 0.0 | 1.0 | 0.00 | 0.02 | 0.00 | 91 | 1015.8 |
| 20260508214104 | 60 | 0 | 0.0 | 0.0 | 0.00 | 0.02 | 0.00 | 90 | 1015.8 |
| 20260508213605 | 60 | 0 | 0.0 | 0.0 | 0.00 | 0.02 | 0.00 | 90 | 1015.9 |
| 20260508213105 | 60 | 0 | 0.0 | 0.0 | 0.00 | 0.02 | 0.00 | 90 | 1015.9 |
| 20260508211605 | 60 | 0 | 0.0 | 0.0 | 0.00 | 0.02 | 0.00 | 91 | 1015.9 |
| 20260508203605 | 60 | 0 | 0.0 | 0.0 | 0.00 | 0.02 | 0.02 | 90 | 1015.9 |
| 20260508203105 | 60 | 0 | 0.0 | 0.0 | 0.00 | 0.02 | 0.02 | 90 | 1015.9 |
| 20260508201105 | 60 | 353 | 0.0 | 0.0 | 0.00 | 0.02 | 0.02 | 90 | 1015.9 |
| 20260508200604 | 60 | 0 | 0.0 | 0.0 | 0.00 | 0.02 | 0.02 | 90 | 1015.9 |
| 20260508191604 | 60 | 0 | 0.0 | 0.0 | 0.00 | 0.02 | 0.02 | 90 | 1015.6 |
| 20260508190604 | 60 | 0 | 0.0 | 0.0 | 0.00 | 0.02 | 0.02 | 90 | 1015.6 |
| 20260508183104 | 60 | 0 | 0.0 | 0.0 | 0.00 | 0.02 | 0.02 | 89 | 1014.7 |
| 20260508181604 | 61 | 0 | 0.0 | 0.0 | 0.00 | 0.02 | 0.02 | 89 | 1014.7 |
| 20260508181104 | 61 | 358 | 0.0 | 0.0 | 0.00 | 0.02 | 0.02 | 89 | 1014.7 |
| 20260508180604 | 61 | 330 | 0.0 | 0.0 | 0.00 | 0.02 | 0.02 | 89 | 1014.7 |
| 20260508180105 | 61 | 0 | 0.0 | 0.0 | 0.00 | 0.02 | 0.02 | 89 | 1014.7 |
| 20260508174105 | 61 | 0 | 0.0 | 0.0 | 0.00 | 0.02 | 0.02 | 89 | 1014.7 |
| 20260508173604 | 61 | 0 | 0.0 | 0.0 | 0.00 | 0.02 | 0.02 | 89 | 1014.7 |
| 20260508170105 | 62 | 0 | 0.0 | 1.0 | 0.00 | 0.02 | 0.02 | 88 | 1014.6 |
| 20260508164605 | 62 | 0 | 0.0 | 0.0 | 0.01 | 0.02 | 0.02 | 88 | 1014.6 |
| 20260508163604 | 62 | 0 | 0.0 | 0.0 | 0.01 | 0.02 | 0.02 | 88 | 1014.7 |
| 20260508161605 | 62 | 0 | 0.0 | 0.0 | 0.01 | 0.02 | 0.02 | 88 | 1014.5 |
| 20260508160604 | 62 | 0 | 0.0 | 0.0 | 0.01 | 0.02 | 0.02 | 87 | 1014.5 |
| 20260508154604 | 62 | 0 | 0.0 | 0.0 | 0.00 | 0.02 | 0.02 | 88 | 1014.5 |
| 20260508154104 | 62 | 0 | 0.0 | 0.0 | 0.00 | 0.02 | 0.02 | 88 | 1014.5 |
| 20260508153604 | 62 | 0 | 0.0 | 0.0 | 0.00 | 0.02 | 0.02 | 88 | 1014.5 |
| 20260508153104 | 62 | 0 | 0.0 | 0.0 | 0.00 | 0.02 | 0.02 | 88 | 1014.5 |
| 20260508151604 | 62 | 0 | 0.0 | 0.0 | 0.00 | 0.02 | 0.02 | 88 | 1014.6 |
| 20260508150605 | 62 | 0 | 0.0 | 0.0 | 0.00 | 0.02 | 0.02 | 88 | 1014.6 |
| 20260508143605 | 62 | 0 | 0.0 | 0.0 | 0.00 | 0.02 | 0.02 | 89 | 1014.5 |
| 20260508141105 | 62 | 296 | 0.0 | 0.0 | 0.00 | 0.02 | 0.02 | 89 | 1014.9 |
| 20260508134605 | 62 | 298 | 0.0 | 0.0 | 0.00 | 0.02 | 0.02 | 89 | 1014.9 |
| 20260508133604 | 62 | 312 | 0.0 | 0.0 | 0.00 | 0.02 | 0.02 | 90 | 1014.9 |
| 20260508133104 | 62 | 0 | 0.0 | 0.0 | 0.00 | 0.02 | 0.02 | 89 | 1015.9 |
| 20260508131605 | 62 | 0 | 0.0 | 0.0 | 0.00 | 0.02 | 0.02 | 89 | 1015.9 |
| 20260508123604 | 63 | 0 | 0.0 | 0.0 | 0.00 | 0.02 | 0.02 | 89 | 1015.9 |
| 20260508123104 | 63 | 0 | 0.0 | 1.0 | 0.00 | 0.02 | 0.02 | 89 | 1015.9 |
| 20260508120604 | 63 | 0 | 0.0 | 1.0 | 0.00 | 0.02 | 0.02 | 89 | 1015.9 |
| 20260508114605 | 63 | 0 | 0.0 | 1.0 | 0.01 | 0.02 | 0.02 | 88 | 1015.9 |
| 20260508113105 | 63 | 0 | 0.0 | 2.0 | 0.01 | 0.02 | 0.02 | 88 | 1016.6 |
| 20260508110105 | 63 | 0 | 0.0 | 0.0 | 0.01 | 0.02 | 0.02 | 87 | 1016.7 |
| 20260508103104 | 64 | 0 | 0.0 | 0.0 | 0.00 | 0.02 | 0.01 | 87 | 1017.4 |
| 20260508101104 | 64 | 0 | 0.0 | 0.0 | 0.01 | 0.02 | 0.01 | 86 | 1017.4 |
| 20260508100105 | 64 | 257 | 0.0 | 0.0 | 0.01 | 0.02 | 0.01 | 86 | 1017.9 |
| 20260508094604 | 64 | 0 | 0.0 | 0.0 | 0.01 | 0.02 | 0.01 | 85 | 1017.9 |
| 20260508094104 | 64 | 0 | 0.0 | 1.0 | 0.01 | 0.02 | 0.01 | 85 | 1017.9 |
| 20260508093105 | 65 | 0 | 0.0 | 5.0 | 0.01 | 0.02 | 0.01 | 84 | 1018.0 |
| 20260508091605 | 65 | 0 | 0.0 | 2.0 | 0.00 | 0.01 | 0.00 | 82 | 1017.6 |
| 20260508091105 | 65 | 0 | 0.0 | 2.0 | 0.00 | 0.01 | 0.00 | 82 | 1017.6 |
| 20260508090104 | 66 | 0 | 0.0 | 0.0 | 0.00 | 0.01 | 0.00 | 81 | 1017.6 |
| 20260508084104 | 66 | 0 | 0.0 | 0.0 | 0.00 | 0.01 | 0.00 | 79 | 1017.1 |
| 20260508083604 | 66 | 0 | 0.0 | 0.0 | 0.00 | 0.01 | 0.00 | 78 | 1017.1 |
| 20260508083104 | 66 | 0 | 0.0 | 0.0 | 0.00 | 0.01 | 0.00 | 78 | 1017.1 |
| 20260508081604 | 67 | 0 | 0.0 | 0.0 | 0.00 | 0.01 | 0.00 | 77 | 1016.3 |
| 20260508080605 | 67 | 0 | 0.0 | 0.0 | 0.00 | 0.01 | 0.00 | 76 | 1016.3 |
| 20260508080105 | 66 | 0 | 0.0 | 0.0 | 0.00 | 0.01 | 0.00 | 77 | 1016.3 |
| 20260508074605 | 65 | 0 | 0.0 | 0.0 | 0.00 | 0.01 | 0.00 | 80 | 1016.3 |
| 20260508074105 | 65 | 0 | 0.0 | 0.0 | 0.00 | 0.01 | 0.00 | 81 | 1016.3 |
| 20260508073604 | 65 | 0 | 0.0 | 0.0 | 0.00 | 0.01 | 0.00 | 82 | 1016.3 |
| 20260508071605 | 63 | 0 | 0.0 | 0.0 | 0.00 | 0.01 | 0.00 | 84 | 1016.9 |
| 20260508070605 | 63 | 0 | 0.0 | 0.0 | 0.00 | 0.01 | 0.00 | 85 | 1017.1 |
| 20260508063604 | 61 | 0 | 0.0 | 2.0 | 0.00 | 0.01 | 0.00 | 87 | 1016.4 |